Weather History for Oromocto, NB

Change the Weather History Date:

Thursday, December 6, 2012

  Actual Average Record
Temperature  
Mean Temperature 24 °F -  
Max Temperature 30 °F 31 °F 55 °F (1999)
Min Temperature 17 °F 19 °F 3 °F (2006)
Degree Days  
Heating Degree Days 40    
Moisture  
Dew Point 14 °F    
Average Humidity 57    
Maximum Humidity 79    
Minimum Humidity 36    
Precipitation  
Precipitation 0.00 in - - ()
Sea Level Pressure  
Sea Level Pressure 30.10 in    
Wind  
Wind Speed 12 mph ()    
Max Wind Speed 25 mph    
Max Gust Speed 33 mph    
Visibility 15.0 miles    
Events      
Averages and records for this station are not official NWS values.
T = Trace of Precipitation, MM = Missing Value Source: Averaged Metar Reports

Daily Weather History Graph

Daily Weather History Graph

Search for Another Location

Airport:

Trip Planner

Search our weather history database for the weather conditions in past years. The results will help you decide how hot, cold, wet, or windy it might be!

Date:

Astronomy

Dec. 06, 2012 Rise Set
Actual Time 7:52 AM AST 4:41 PM AST
Civil Twilight 7:18 AM AST 5:15 PM AST
Nautical Twilight 6:41 AM AST 5:52 PM AST
Astronomical Twilight 6:04 AM AST 6:29 PM AST
Moon No Moon Rise 12:25 PM AST (12/6)
Length of Visible Light 9h 56m
Length of Day
8h 48m
Waning Gibbous, 50% of the Moon is Illuminated
Dec 6
Waning Gibbous
Dec 13
New
Dec 20
First Quarter
Dec 28
Full
Jan 4
Last Quarter

Hourly Weather History & Observations

Time (AST) Temp. Windchill Dew Point Humidity Pressure Visibility Wind Dir Wind Speed Gust Speed Precip Events Conditions
12:00 AM 30.2 °F 20.2 °F 17.6 °F 60% 29.89 in 15.0 mi NW 12.7 mph - N/A   Scattered Clouds
1:00 AM 30.2 °F 18.1 °F 17.6 °F 60% 29.90 in 15.0 mi WNW 18.4 mph - N/A   Mostly Cloudy
2:00 AM 31 °F - 17 °F 42% 29.91 in 15 mi NW 12.7 mph - -   Mostly Cloudy
2:00 AM 30.2 °F 18.9 °F 17.6 °F 60% 29.91 in 15.0 mi NW 16.1 mph - N/A   Mostly Cloudy
3:00 AM 30.2 °F 18.1 °F 15.8 °F 55% 29.94 in 15.0 mi NW 18.4 mph 25.3 mph N/A   Mostly Cloudy
4:00 AM 30.2 °F 20.2 °F 17.6 °F 60% 29.94 in 15.0 mi NW 12.7 mph 23.0 mph N/A   Mostly Cloudy
5:00 AM 30.2 °F 19.8 °F 15.8 °F 55% 29.97 in 15.0 mi NW 13.8 mph 20.7 mph N/A   Mostly Cloudy
6:00 AM 28.4 °F 13.8 °F 15.8 °F 59% 29.99 in 15.0 mi NW 25.3 mph 33.4 mph N/A   Mostly Cloudy
6:34 AM - - - N/A% - 15.0 mi WNW 15.0 mph 27.6 mph N/A   Unknown
7:00 AM 28.4 °F 18.0 °F 15.8 °F 59% 30.03 in 15.0 mi NW 12.7 mph 18.4 mph N/A   Mostly Cloudy
8:00 AM 28 °F - 16 °F 48% 30.06 in 15 mi NW 17.3 mph - -   Partly Cloudy
8:00 AM 28.4 °F 17.5 °F 15.8 °F 59% 30.06 in 15.0 mi NW 13.8 mph 27.6 mph N/A   Mostly Cloudy
9:00 AM 26.6 °F 13.1 °F 15.8 °F 64% 30.10 in 15.0 mi NW 19.6 mph - N/A   Mostly Cloudy
10:00 AM 28.4 °F 16.2 °F 14.0 °F 55% 30.12 in 15.0 mi NW 17.3 mph 24.2 mph N/A   Scattered Clouds
11:00 AM 28.4 °F 18.5 °F 14.0 °F 55% 30.14 in 15.0 mi NW 11.5 mph 23.0 mph N/A   Partly Cloudy
12:00 PM 28.4 °F 17.5 °F 12.2 °F 51% 30.14 in 15.0 mi WNW 13.8 mph 23.0 mph N/A   Partly Cloudy
1:00 PM 30.2 °F 18.5 °F 14.0 °F 51% 30.13 in 15.0 mi NNW 17.3 mph 23.0 mph N/A   Partly Cloudy
2:00 PM 30 °F - 13 °F 36% 30.14 in 15 mi NW 15.0 mph - -   Scattered Clouds
2:00 PM 30.2 °F 18.9 °F 14.0 °F 51% 30.14 in 15.0 mi NW 16.1 mph - N/A   Partly Cloudy
3:00 PM 28.4 °F 16.6 °F 12.2 °F 51% 30.16 in 15.0 mi WNW 16.1 mph 21.9 mph N/A   Clear
4:00 PM 28.4 °F 18.5 °F 12.2 °F 51% 30.19 in 15.0 mi NW 11.5 mph 19.6 mph N/A   Partly Cloudy
5:00 PM 26.6 °F 18.2 °F 12.2 °F 55% 30.21 in 15.0 mi West 8.1 mph - N/A   Partly Cloudy
6:00 PM 24.8 °F 16.9 °F 12.2 °F 59% 30.22 in 15.0 mi WNW 6.9 mph - N/A   Partly Cloudy
7:00 PM 24.8 °F 16.1 °F 14.0 °F 64% 30.25 in 15.0 mi NW 8.1 mph - N/A   Clear
8:00 PM 24 °F - 13 °F 50% 30.26 in 15 mi NW 6.9 mph - -  
8:00 PM 23.0 °F 13.9 °F 12.2 °F 63% 30.26 in 15.0 mi NW 8.1 mph - N/A   Clear
9:00 PM 21.2 °F 14.9 °F 12.2 °F 68% 30.26 in 15.0 mi NW 4.6 mph - N/A   Clear
10:00 PM 19.4 °F 11.5 °F 12.2 °F 74% 30.25 in 15.0 mi NW 5.8 mph - N/A   Clear
11:00 PM 17.6 °F - 12.2 °F 79% 30.26 in 15.0 mi Calm Calm - N/A   Clear